CZ-6A DEB

Satellite information

Favourite Embed

Satellite Type and Status

DEBRISIN ORBIT

Key statistics

Satellite CZ-6A DEB at a glance.

Uptime

909

Days in orbit

Revolutions

≈ 14.6

Per day

Orbit

SSO

Sun Synchronous Orbit

Inclination

98.6

Latest

Satellite identification and parameters

Extended collection of information and parameters for CZ-6A DEB.

Object identification

Identified? True

Debris? True

Object name: CZ-6A DEB

International designator: 2022-151ACP

Object number (NORAD): 56271

Object ID (CCSDS): 56271

Country: PEOPLES REPUBLIC OF CHINA (PRC)

Current information (Y/N): Y

RCS size: SMALL

Orbital parameters

Period: 98.486 minutes

Inclination: 98.5539 deg

SMA: 7064.417 km

Apoapsis: 733.96 km

Periapsis: 638.603 km

RAAN: 153.7602 deg

Eccentricy: 0.0067491

Argument of periapsis: 107.7444 deg

Mean anomaly: 253.1137 deg

Mean motion: 14.62137833 rev/day

Mean motion (dot): 0.00016435 rev/day2

B* drag term: 0.0031667 1/REarth

Two-line elements (TLE)

Creation date: May 8, 2025, 3:01 a.m.

Reference frame: TEME

Reference center: EARTH

Epoch: May 7, 2025, 7:14 a.m. UTC

TLE line 0: 0 CZ-6A DEB

TLE line 1: 1 56271U 22151ACP 25127.30143398 .00016435 00000-0 31667-2 0 9994

TLE line 2: 2 56271 98.5539 153.7602 0067491 107.7444 253.1137 14.62137833112475

Live tracking on map

Real-time ground track for satellite CZ-6A DEB.

In-orbit conjunctions

A list of the most updated potential collisions computed for object CZ-6A DEB.

Target Orbit TCA Probability of collision Miss distance Type
SL-8 DEB LEO 2025-02-17 15:37:49 0.0001709935 157.0 (m) DEBRIS
CZ-6A DEB LEO 2025-01-04 20:28:56 0.0001405277 520.0 (m) DEBRIS
SL-8 DEB LEO 2024-09-30 02:33:18 0.0001546211 33.0 (m) DEBRIS

Associated space launch

Chinese satellite reported for atmospheric/ocean/environmental/spatial parameter research purposes, details TBD.

CZ-6A DEB was lifted into orbit during the mission ‘Long March 6A | Yunhai 3’, on board a Long March 6A space rocket.

The launch took place on Nov. 11, 2022, 10:52 p.m. from Launch Complex 9A.

For more information about the launch, click the button.

Launch to space Long March 6A | Yunhai 3
Long March 6A | Yunhai 3

Agency: N/A

Status: Launch Successful

Launch date: Nov. 11, 2022, 10:52 p.m. UTC

Rocket: Long March 6A

Launch pad: Launch Complex 9A

Location: Taiyuan Satellite Launch Center, People's Republic of China

...

Latest news about this satellite

There are no fresh news available about this satellite. Check back as we update our databases every day.


Newsletter sign-up

Weekly statistics, charts and insights to help you stay on top of the space industry.